| time (UTC) | temp F | wind direction | speed MPH | gust MPH | rain 1hr in | rain 24hr in | rain mn in | humidity % | barometer mb |
| 20260504004534 | 69 | 260 | 6.0 | 15.0 | 0.00 | 0.00 | 0.00 | 27 | 1003.3 |
| 20260504003023 | 70 | 284 | 8.0 | 14.0 | 0.00 | 0.00 | 0.00 | 25 | 1003.6 |
| 20260504001534 | 70 | 268 | 6.0 | 18.0 | 0.00 | 0.00 | 0.00 | 25 | 1003.9 |
| 20260504000028 | 71 | 275 | 9.0 | 17.0 | 0.00 | 0.00 | 0.00 | 24 | 1004.1 |
| 20260503234519 | 71 | 300 | 9.0 | 20.0 | 0.00 | 0.00 | 0.00 | 22 | 1004.3 |
| 20260503233023 | 72 | 267 | 6.0 | 23.0 | 0.00 | 0.00 | 0.00 | 22 | 1004.5 |
| 20260503231528 | 72 | 347 | 4.0 | 21.0 | 0.00 | 0.00 | 0.00 | 22 | 1004.7 |
| 20260503230012 | 72 | 265 | 10.0 | 21.0 | 0.00 | 0.00 | 0.00 | 21 | 1004.8 |
| 20260503224522 | 72 | 256 | 11.0 | 19.0 | 0.00 | 0.00 | 0.00 | 22 | 1004.8 |
| 20260503223023 | 72 | 285 | 8.0 | 13.0 | 0.00 | 0.00 | 0.00 | 22 | 1005.0 |
| 20260503221531 | 73 | 22 | 6.0 | 17.0 | 0.00 | 0.00 | 0.00 | 23 | 1005.4 |
| 20260503220027 | 72 | 269 | 9.0 | 16.0 | 0.00 | 0.00 | 0.00 | 23 | 1005.8 |
| 20260503214532 | 73 | 309 | 4.0 | 17.0 | 0.00 | 0.00 | 0.00 | 23 | 1005.9 |
| 20260503213032 | 72 | 304 | 6.0 | 18.0 | 0.00 | 0.00 | 0.00 | 26 | 1006.4 |
| 20260503211526 | 72 | 5 | 3.0 | 19.0 | 0.00 | 0.00 | 0.00 | 25 | 1006.7 |
| 20260503210019 | 72 | 258 | 3.0 | 15.0 | 0.00 | 0.00 | 0.00 | 26 | 1007.0 |
| 20260503204528 | 71 | 59 | 2.0 | 11.0 | 0.00 | 0.00 | 0.00 | 30 | 1007.3 |
| 20260503203025 | 72 | 344 | 3.0 | 10.0 | 0.00 | 0.00 | 0.00 | 29 | 1007.6 |
| 20260503201510 | 72 | 297 | 4.0 | 13.0 | 0.00 | 0.00 | 0.00 | 30 | 1007.9 |
| 20260503200008 | 70 | 9 | 2.0 | 10.0 | 0.00 | 0.00 | 0.00 | 31 | 1008.3 |
| 20260503194504 | 70 | 11 | 3.0 | 9.0 | 0.00 | 0.00 | 0.00 | 28 | 1008.6 |
| 20260503193008 | 70 | 15 | 2.0 | 10.0 | 0.00 | 0.00 | 0.00 | 28 | 1008.8 |
| 20260503191511 | 70 | 13 | 3.0 | 11.0 | 0.00 | 0.00 | 0.00 | 26 | 1009.1 |
| 20260503190014 | 70 | 265 | 2.0 | 15.0 | 0.00 | 0.00 | 0.00 | 32 | 1009.2 |
| 20260503184507 | 69 | 28 | 3.0 | 14.0 | 0.00 | 0.00 | 0.00 | 30 | 1009.4 |
| 20260503183011 | 70 | 316 | 2.0 | 11.0 | 0.00 | 0.00 | 0.00 | 35 | 1009.7 |
| 20260503181534 | 69 | 360 | 5.0 | 12.0 | 0.00 | 0.00 | 0.00 | 29 | 1010.0 |
| 20260503180027 | 68 | 17 | 5.0 | 14.0 | 0.00 | 0.00 | 0.00 | 30 | 1010.3 |
| 20260503174504 | 67 | 33 | 3.0 | 11.0 | 0.00 | 0.00 | 0.00 | 35 | 1010.7 |
| 20260503173009 | 67 | 355 | 2.0 | 11.0 | 0.00 | 0.00 | 0.00 | 36 | 1010.8 |
| 20260503171523 | 66 | 24 | 5.0 | 16.0 | 0.00 | 0.00 | 0.00 | 35 | 1011.0 |
| 20260503081511 | 49 | 51 | 4.0 | 9.0 | 0.00 | 0.00 | 0.00 | 63 | 1010.2 |
| 20260503071528 | 51 | 5 | 4.0 | 11.0 | 0.00 | 0.00 | 0.00 | 59 | 1009.8 |
| 20260503054532 | 55 | 53 | 5.0 | 13.0 | 0.00 | 0.00 | 0.00 | 54 | 1009.0 |
| 20260503053028 | 55 | 21 | 5.0 | 14.0 | 0.00 | 0.00 | 0.00 | 52 | 1008.7 |
| 20260503051526 | 56 | 32 | 4.0 | 13.0 | 0.00 | 0.00 | 0.00 | 50 | 1008.5 |
| 20260503050018 | 57 | 19 | 7.0 | 16.0 | 0.00 | 0.00 | 0.00 | 49 | 1008.3 |
| 20260503044521 | 57 | 17 | 5.0 | 12.0 | 0.00 | 0.00 | 0.00 | 48 | 1008.2 |
| 20260503043006 | 56 | 331 | 1.0 | 8.0 | 0.00 | 0.00 | 0.00 | 48 | 1008.1 |
| 20260503041512 | 57 | 76 | 2.0 | 8.0 | 0.00 | 0.00 | 0.00 | 46 | 1007.8 |
| 20260503040028 | 58 | 350 | 3.0 | 11.0 | 0.00 | 0.00 | 0.00 | 44 | 1007.8 |
| 20260503034504 | 61 | 27 | 0.0 | 9.0 | 0.00 | 0.00 | 0.00 | 41 | 1007.8 |
| 20260503033010 | 61 | 5 | 3.0 | 12.0 | 0.00 | 0.00 | 0.00 | 39 | 1007.8 |
| 20260503031512 | 61 | 5 | 2.0 | 14.0 | 0.00 | 0.00 | 0.00 | 38 | 1007.8 |
| 20260503030023 | 62 | 338 | 4.0 | 12.0 | 0.00 | 0.00 | 0.00 | 37 | 1007.8 |
| 20260503024525 | 63 | 15 | 2.0 | 13.0 | 0.00 | 0.00 | 0.00 | 36 | 1007.6 |
| 20260503023014 | 64 | 12 | 3.0 | 14.0 | 0.00 | 0.00 | 0.00 | 35 | 1007.5 |
| 20260503021517 | 65 | 27 | 5.0 | 16.0 | 0.00 | 0.00 | 0.00 | 34 | 1007.4 |
| 20260503020020 | 66 | 27 | 2.0 | 13.0 | 0.00 | 0.00 | 0.00 | 33 | 1007.2 |
| 20260503014529 | 68 | 355 | 8.0 | 16.0 | 0.00 | 0.00 | 0.00 | 32 | 1007.1 |
| 20260503013008 | 69 | 17 | 4.0 | 13.0 | 0.00 | 0.00 | 0.00 | 32 | 1007.0 |
| 20260503011529 | 70 | 5 | 5.0 | 13.0 | 0.00 | 0.00 | 0.00 | 31 | 1006.7 |
| 20260503010021 | 71 | 9 | 3.0 | 13.0 | 0.00 | 0.00 | 0.00 | 31 | 1006.6 |